| time (UTC) | temp F | wind direction | speed knots | gust knots | rain 1hr in | rain 24hr in | rain mn in | humidity % | barometer mb |
| 20260506011515 | 49 | 350 | 7.0 | 7.8 | 0.00 | 0.00 | 0.00 | 81 | 1014.0 |
| 20260506010515 | 49 | 350 | 7.0 | 8.7 | 0.00 | 0.00 | 0.00 | 81 | 1014.0 |
| 20260506005515 | 49 | 350 | 7.0 | 8.7 | 0.00 | 0.00 | 0.00 | 81 | 1014.0 |
| 20260506004515 | 49 | 360 | 7.0 | 7.0 | 0.00 | 0.00 | 0.00 | 81 | 1014.0 |
| 20260506003515 | 49 | 360 | 7.8 | 7.8 | 0.00 | 0.00 | 0.00 | 81 | 1014.0 |
| 20260506002515 | 49 | 360 | 8.7 | 8.7 | 0.00 | 0.00 | 0.00 | 81 | 1015.0 |
| 20260506001515 | 49 | 360 | 8.7 | 9.6 | 0.00 | 0.00 | 0.00 | 81 | 1015.0 |
| 20260506000516 | 49 | 360 | 8.7 | 9.6 | 0.00 | 0.00 | 0.00 | 81 | 1015.0 |
| 20260505235515 | 49 | 350 | 7.8 | 9.6 | 0.00 | 0.00 | 0.00 | 81 | 1015.0 |
| 20260505234516 | 49 | 350 | 7.8 | 9.6 | 0.00 | 0.00 | 0.00 | 81 | 1015.0 |
| 20260505233516 | 52 | 350 | 9.6 | 9.6 | 0.00 | 0.00 | 0.00 | 76 | 1015.0 |
| 20260505230515 | 52 | 350 | 9.6 | 9.6 | 0.00 | 0.00 | 0.00 | 76 | 1015.0 |
| 20260505225515 | 52 | 350 | 9.6 | 9.6 | 0.00 | 0.00 | 0.00 | 76 | 1015.0 |
| 20260505224515 | 52 | 350 | 9.6 | 9.6 | 0.00 | 0.00 | 0.00 | 76 | 1015.0 |
| 20260505223515 | 52 | 350 | 9.6 | 9.6 | 0.00 | 0.00 | 0.00 | 76 | 1015.0 |
| 20260505222515 | 52 | 350 | 9.6 | 9.6 | 0.00 | 0.00 | 0.00 | 76 | 1015.0 |
| 20260505221515 | 52 | 350 | 9.6 | 9.6 | 0.00 | 0.00 | 0.00 | 76 | 1015.0 |
| 20260505220515 | 52 | 350 | 9.6 | 9.6 | 0.00 | 0.00 | 0.00 | 76 | 1015.0 |
| 20260505215515 | 52 | 350 | 9.6 | 9.6 | 0.00 | 0.00 | 0.00 | 76 | 1015.0 |
| 20260505214516 | 52 | 350 | 9.6 | 9.6 | 0.00 | 0.00 | 0.00 | 76 | 1015.0 |
| 20260505213516 | 52 | 350 | 9.6 | 9.6 | 0.00 | 0.00 | 0.00 | 76 | 1015.0 |
| 20260505212516 | 52 | 350 | 9.6 | 9.6 | 0.00 | 0.00 | 0.00 | 76 | 1015.0 |
| 20260505211817 | 52 | 350 | 9.6 | 9.6 | 0.00 | 0.00 | 0.00 | 76 | 1015.0 |
| 20260505210817 | 52 | 350 | 9.6 | 9.6 | 0.00 | 0.00 | 0.00 | 76 | 1015.0 |
| 20260505205817 | 52 | 350 | 9.6 | 9.6 | 0.00 | 0.00 | 0.00 | 76 | 1015.0 |
| 20260505204816 | 52 | 350 | 9.6 | 9.6 | 0.00 | 0.00 | 0.00 | 76 | 1015.0 |
| 20260505203816 | 52 | 350 | 9.6 | 9.6 | 0.00 | 0.00 | 0.00 | 76 | 1015.0 |
| 20260505202816 | 52 | 340 | 9.6 | 24.3 | 0.00 | 0.00 | 0.00 | 76 | 1015.0 |
| 20260505201816 | 52 | 340 | 9.6 | 24.3 | 0.00 | 0.00 | 0.00 | 76 | 1015.0 |
| 20260505200816 | 52 | 340 | 9.6 | 24.3 | 0.00 | 0.00 | 0.00 | 76 | 1015.0 |
| 20260505194816 | 52 | 340 | 9.6 | 24.3 | 0.00 | 0.00 | 0.00 | 76 | 1015.0 |
| 20260505193817 | 54 | 80 | 24.3 | 24.3 | 0.00 | 0.00 | 0.00 | 76 | 1015.0 |
| 20260505191817 | 54 | 80 | 24.3 | 24.3 | 0.00 | 0.00 | 0.00 | 76 | 1015.0 |
| 20260505190817 | 54 | 80 | 24.3 | 24.3 | 0.00 | 0.00 | 0.00 | 76 | 1015.0 |
| 20260505185817 | 54 | 80 | 24.3 | 24.3 | 0.00 | 0.00 | 0.00 | 76 | 1015.0 |
| 20260505184817 | 54 | 80 | 24.3 | 24.3 | 0.00 | 0.00 | 0.00 | 76 | 1015.0 |
| 20260505183816 | 54 | 80 | 24.3 | 24.3 | 0.00 | 0.00 | 0.00 | 76 | 1015.0 |
| 20260505182816 | 54 | 80 | 24.3 | 24.3 | 0.00 | 0.00 | 0.00 | 76 | 1014.0 |
| 20260505181816 | 54 | 80 | 24.3 | 24.3 | 0.00 | 0.00 | 0.00 | 76 | 1014.0 |
| 20260505180816 | 54 | 80 | 24.3 | 24.3 | 0.00 | 0.00 | 0.00 | 76 | 1014.0 |
| 20260505175817 | 54 | 80 | 24.3 | 24.3 | 0.00 | 0.00 | 0.00 | 76 | 1014.0 |
| 20260505174816 | 54 | 80 | 24.3 | 24.3 | 0.00 | 0.00 | 0.00 | 76 | 1014.0 |
| 20260505173816 | 54 | 80 | 24.3 | 24.3 | 0.00 | 0.00 | 0.00 | 76 | 1014.0 |
| 20260505172817 | 54 | 80 | 24.3 | 24.3 | 0.00 | 0.00 | 0.00 | 76 | 1014.0 |
| 20260505171817 | 54 | 80 | 24.3 | 24.3 | 0.00 | 0.00 | 0.00 | 76 | 1014.0 |
| 20260505170817 | 54 | 80 | 24.3 | 24.3 | 0.00 | 0.00 | 0.00 | 76 | 1014.0 |
| 20260505164817 | 54 | 80 | 24.3 | 24.3 | 0.00 | 0.00 | 0.00 | 76 | 1014.0 |
| 20260505163816 | 54 | 80 | 24.3 | 24.3 | 0.00 | 0.00 | 0.00 | 76 | 1014.0 |
| 20260505162816 | 54 | 80 | 24.3 | 24.3 | 0.00 | 0.00 | 0.00 | 76 | 1014.0 |
| 20260505161816 | 54 | 80 | 24.3 | 24.3 | 0.00 | 0.00 | 0.00 | 76 | 1014.0 |
| 20260505160816 | 54 | 80 | 24.3 | 24.3 | 0.00 | 0.00 | 0.00 | 76 | 1014.0 |
| 20260505124817 | 54 | 80 | 24.3 | 24.3 | 0.00 | 0.00 | 0.00 | 76 | 1014.0 |
| 20260505123817 | 54 | 80 | 24.3 | 24.3 | 0.00 | 0.00 | 0.00 | 76 | 1014.0 |
| 20260505121816 | 54 | 80 | 24.3 | 24.3 | 0.00 | 0.00 | 0.00 | 76 | 1015.0 |
| 20260505120816 | 54 | 80 | 24.3 | 24.3 | 0.00 | 0.00 | 0.00 | 76 | 1015.0 |
| 20260505115816 | 54 | 80 | 24.3 | 24.3 | 0.00 | 0.00 | 0.00 | 76 | 1015.0 |
| 20260505114816 | 54 | 80 | 24.3 | 24.3 | 0.00 | 0.00 | 0.00 | 76 | 1015.0 |
| 20260505113817 | 54 | 80 | 24.3 | 24.3 | 0.00 | 0.00 | 0.00 | 76 | 1015.0 |
| 20260505112817 | 54 | 80 | 24.3 | 24.3 | 0.00 | 0.00 | 0.00 | 76 | 1015.0 |
| 20260505111816 | 54 | 80 | 24.3 | 24.3 | 0.00 | 0.00 | 0.00 | 76 | 1015.0 |
| 20260505110817 | 54 | 80 | 24.3 | 24.3 | 0.00 | 0.00 | 0.00 | 76 | 1015.0 |
| 20260505101816 | 54 | 80 | 24.3 | 24.3 | 0.00 | 0.00 | 0.00 | 76 | 1014.0 |
| 20260505095816 | 54 | 80 | 24.3 | 24.3 | 0.00 | 0.00 | 0.00 | 76 | 1014.0 |
| 20260505094816 | 54 | 80 | 24.3 | 24.3 | 0.00 | 0.00 | 0.00 | 76 | 1014.0 |
| 20260505093816 | 54 | 80 | 24.3 | 24.3 | 0.00 | 0.00 | 0.00 | 76 | 1014.0 |
| 20260505092816 | 54 | 80 | 24.3 | 24.3 | 0.00 | 0.00 | 0.00 | 76 | 1014.0 |
| 20260505091816 | 54 | 80 | 24.3 | 24.3 | 0.00 | 0.00 | 0.00 | 76 | 1014.0 |
| 20260505090816 | 54 | 80 | 24.3 | 24.3 | 0.00 | 0.00 | 0.00 | 76 | 1014.0 |
| 20260505085817 | 54 | 80 | 24.3 | 24.3 | 0.00 | 0.00 | 0.00 | 76 | 1014.0 |
| 20260505084817 | 54 | 80 | 24.3 | 24.3 | 0.00 | 0.00 | 0.00 | 76 | 1014.0 |
| 20260505083817 | 54 | 80 | 24.3 | 24.3 | 0.00 | 0.00 | 0.00 | 76 | 1014.0 |
| 20260505082817 | 54 | 80 | 24.3 | 24.3 | 0.00 | 0.00 | 0.00 | 76 | 1014.0 |
| 20260505081816 | 54 | 80 | 24.3 | 24.3 | 0.00 | 0.00 | 0.00 | 76 | 1014.0 |
| 20260505080816 | 54 | 80 | 24.3 | 24.3 | 0.00 | 0.00 | 0.00 | 76 | 1014.0 |
| 20260505074816 | 54 | 80 | 24.3 | 24.3 | 0.00 | 0.00 | 0.00 | 76 | 1014.0 |
| 20260505073816 | 54 | 80 | 24.3 | 24.3 | 0.00 | 0.00 | 0.00 | 76 | 1014.0 |
| 20260505072816 | 54 | 80 | 24.3 | 24.3 | 0.00 | 0.00 | 0.00 | 76 | 1014.0 |
| 20260505071817 | 54 | 80 | 24.3 | 24.3 | 0.00 | 0.00 | 0.00 | 76 | 1014.0 |
| 20260505065816 | 54 | 80 | 24.3 | 24.3 | 0.00 | 0.00 | 0.00 | 76 | 1014.0 |
| 20260505064817 | 54 | 80 | 24.3 | 24.3 | 0.00 | 0.00 | 0.00 | 76 | 1014.0 |
| 20260505063817 | 54 | 80 | 24.3 | 24.3 | 0.00 | 0.00 | 0.00 | 76 | 1014.0 |
| 20260505062817 | 54 | 80 | 24.3 | 24.3 | 0.00 | 0.00 | 0.00 | 76 | 1014.0 |
| 20260505061817 | 54 | 80 | 24.3 | 24.3 | 0.00 | 0.00 | 0.00 | 76 | 1014.0 |
| 20260505060816 | 54 | 80 | 24.3 | 24.3 | 0.00 | 0.00 | 0.00 | 76 | 1014.0 |
| 20260505055816 | 54 | 80 | 24.3 | 24.3 | 0.00 | 0.00 | 0.00 | 76 | 1014.0 |
| 20260505054816 | 54 | 80 | 24.3 | 24.3 | 0.00 | 0.00 | 0.00 | 76 | 1014.0 |
| 20260505053816 | 54 | 80 | 24.3 | 24.3 | 0.00 | 0.00 | 0.00 | 76 | 1014.0 |
| 20260505052816 | 54 | 80 | 24.3 | 24.3 | 0.00 | 0.00 | 0.00 | 76 | 1014.0 |
| 20260505051816 | 54 | 80 | 24.3 | 24.3 | 0.00 | 0.00 | 0.00 | 76 | 1014.0 |
| 20260505050816 | 54 | 80 | 24.3 | 24.3 | 0.00 | 0.00 | 0.00 | 76 | 1014.0 |
| 20260505040817 | 54 | 80 | 24.3 | 24.3 | 0.00 | 0.00 | 0.00 | 76 | 1014.0 |
| 20260505035816 | 54 | 80 | 24.3 | 24.3 | 0.00 | 0.00 | 0.00 | 76 | 1014.0 |
| 20260505034816 | 54 | 80 | 24.3 | 24.3 | 0.00 | 0.00 | 0.00 | 76 | 1014.0 |
| 20260505033816 | 54 | 80 | 24.3 | 24.3 | 0.00 | 0.00 | 0.00 | 76 | 1014.0 |
| 20260505032816 | 54 | 80 | 24.3 | 24.3 | 0.00 | 0.00 | 0.00 | 76 | 1014.0 |
| 20260505031816 | 54 | 80 | 24.3 | 24.3 | 0.00 | 0.00 | 0.00 | 76 | 1014.0 |
| 20260505030816 | 54 | 80 | 24.3 | 24.3 | 0.00 | 0.00 | 0.00 | 76 | 1014.0 |
| 20260505025816 | 54 | 80 | 24.3 | 24.3 | 0.00 | 0.00 | 0.00 | 76 | 1014.0 |
| 20260505024816 | 54 | 80 | 24.3 | 24.3 | 0.00 | 0.00 | 0.00 | 76 | 1014.0 |
| 20260505023817 | 54 | 80 | 24.3 | 24.3 | 0.00 | 0.00 | 0.00 | 76 | 1014.0 |
| 20260505022817 | 54 | 80 | 24.3 | 24.3 | 0.00 | 0.00 | 0.00 | 76 | 1014.0 |
| 20260505021817 | 54 | 80 | 24.3 | 24.3 | 0.00 | 0.00 | 0.00 | 76 | 1014.0 |
| 20260505020817 | 54 | 80 | 24.3 | 24.3 | 0.00 | 0.00 | 0.00 | 76 | 1014.0 |
| 20260505015817 | 54 | 80 | 24.3 | 24.3 | 0.00 | 0.00 | 0.00 | 76 | 1014.0 |
| 20260505014816 | 54 | 80 | 24.3 | 24.3 | 0.00 | 0.00 | 0.00 | 76 | 1014.0 |
| 20260505013816 | 54 | 80 | 24.3 | 24.3 | 0.00 | 0.00 | 0.00 | 76 | 1014.0 |
| 20260505012816 | 54 | 80 | 24.3 | 24.3 | 0.00 | 0.00 | 0.00 | 76 | 1014.0 |
| 20260505011816 | 54 | 80 | 24.3 | 24.3 | 0.00 | 0.00 | 0.00 | 76 | 1014.0 |